User: anonymous   Login
Location: Unspecified
(0.0000°N, 0.0000°E)
Time: 11:01:00
(UTC+00:00)
Language:

NADEZHDA 7 - Orbit

View from above orbital plane
View from above orbital plane
View from above satellite
View from above satellite

Ground track
Ground track

The orbit data is extracted from the following two-line orbital elements,

1 27534U 02046A   24110.73271406  .00000111  00000-0  10432-3 0  9997
2 27534  82.9388 193.3797 0036184   6.4030 106.1040 13.72838750 80379
Epoch (UTC): 19 April 2024 17:35:06
Eccentricity: 0.0036184
inclination: 82.9388°
perigee height: 963 km
apogee height: 1016 km
right ascension of ascending node: 193.3797°
argument of perigee: 6.4030°
revolutions per day: 13.72838750
mean anomaly at epoch: 106.1040°
orbit number at epoch: 8037

The dashed part of the orbit path shows where the satellite is in the earth's shadow,  

DLR